Location: Dob?e?
(49.9411°N, 15.1496°E)
Time: 19:39:33
(UTC+00:00)

NOAA 18 - Pass Details

Date: 27 October 2021
Orbit: 840 x 861 km, 99.0° (Epoch: 01 December)

Event Time Altitude Azimuth Distance (km) Brightness Sun altitude
Exits shadow 18:26:16 12° 21° (NNE) 2,370 7.4 -26.4°
Drops below altitude 10° 18:26:56 10° 15° (NNE) 2,510 7.6 -26.5°
Sets 18:30:13 0° 355° (N) 3,453 8.6 -27.1°
